This is the latest recevied weather packets stored in our database for station/object G0TGD-10. If no packets are shown the sender has not sent any weather packets the latest 10 day(s).
| Time | Temp. | Humidity | Pressure | Rain* | Wind** | Luminosity | Snow |
|---|---|---|---|---|---|---|---|
| 1777930573 | 7.78° C | 76% | 1015.7 hPa | - | - | - | - |
| 1777929673 | 7.78° C | 75% | 1015.7 hPa | - | - | - | - |
| 1777928773 | 8.33° C | 75% | 1015.7 hPa | - | - | - | - |
| 1777927873 | 8.89° C | 74% | 1015.7 hPa | - | - | - | - |
| 1777926972 | 9.44° C | 74% | 1015.8 hPa | - | - | - | - |
| 1777926072 | 10° C | 73% | 1015.7 hPa | - | - | - | - |
| 1777925172 | 10.56° C | 72% | 1015.6 hPa | - | - | - | - |
| 1777924272 | 11.11° C | 72% | 1015.5 hPa | - | - | - | - |
| 1777923372 | 11.67° C | 71% | 1015.4 hPa | - | - | - | - |
| 1777922472 | 12.22° C | 71% | 1015.4 hPa | - | - | - | - |
| 1777921572 | 12.22° C | 71% | 1015.4 hPa | - | - | - | - |
| 1777920672 | 12.22° C | 71% | 1015.4 hPa | - | - | - | - |
| 1777919772 | 12.78° C | 71% | 1015.3 hPa | - | - | - | - |
| 1777918872 | 12.78° C | 71% | 1015.2 hPa | - | - | - | - |
| 1777917972 | 12.78° C | 71% | 1015.4 hPa | - | - | - | - |
| 1777917071 | 12.78° C | 71% | 1015.3 hPa | - | - | - | - |
| 1777916171 | 12.78° C | 70% | 1015.3 hPa | - | - | - | - |
| 1777915271 | 12.78° C | 71% | 1015.4 hPa | - | - | - | - |
| 1777914371 | 12.78° C | 71% | 1015.5 hPa | - | - | - | - |
| 1777913471 | 12.78° C | 71% | 1015.5 hPa | - | - | - | - |
| 1777912571 | 12.78° C | 70% | 1015.5 hPa | - | - | - | - |
| 1777911671 | 13.33° C | 70% | 1015.5 hPa | - | - | - | - |
| 1777910771 | 13.33° C | 70% | 1015.6 hPa | - | - | - | - |
| 1777909871 | 13.33° C | 70% | 1015.6 hPa | - | - | - | - |
| 1777908971 | 13.33° C | 71% | 1015.6 hPa | - | - | - | - |
* Rain since midnight (hover to see other rain measurements)
** Current wind speed in m/s (hover to see current wind gust speed)